Tracking 26955 objects as of 3-Feb-2023
HD Live streaming from Space Station
objects crossing your sky now

DELTA 1 DEB

Track DELTA 1 DEB now!
10-day predictions


NORAD ID: 21351
Int'l Code: 1975-052BV
Perigee: 1,099.0 km
Apogee: 1,197.8 km
Inclination: 99.7 °
Period: 108.2 minutes
Semi major axis: 7519 km
RCS: 0.1445 m2 (medium)
Launch date: June 12, 1975
Source: United States (US)
Launch site: AIR FORCE WESTERN TEST RANGE (AFWTR)

Note: This is SATELLITE DEBRIS
Your satellite tracking list
Your tracking list is empty




NASA's NSSDC Master Catalog

Two Line Element Set (TLE):
1 21351U 75052BV  23033.40962640  .00000019  00000-0  12367-3 0  9995
2 21351  99.6771 204.8625 0065719  30.6468  32.0363 13.31454411540727
Source of the keplerian elements: AFSPC